Date String (YYYY-MM-DD hh:mm:ss) UTC,Instrument flags,Ambient pressure (hPa),Sample flow (lpm),Bypass flow (lpm),Sample temperature (°C),Ambient temperature (°C),ASC tube jacket temperature (°C),LED temperature (°C),Box temperature (°C),Sample RH (%),Span deviation,Mass concentration (μg/m³),Mass concentration (μg/m³),Mass concentration (μg/m³)
DateTimeUTC,F1_M11,P_M11,Q1_M11,Q2_M11,T1_M11,T2_M11,T3_M11,T4_M11,T5_M11,U1_M11,ZSPAN_M11,X0_M11,X2_M11,X1_M11
2022-12-23 03:00:00,,0830.4,5.02,0.00,21.1,19.4,00.0,30.1,22.3,02.4,0001.2,0008.88,0004.62,0004.15
2022-12-23 03:01:00,,0830.4,4.95,0.00,21.1,20.3,00.0,30.0,22.6,02.4,0001.6,0008.89,0004.63,0004.16
2022-12-23 03:02:00,,0830.5,5.03,0.00,21.2,21.1,00.0,30.0,22.8,02.4,0000.2,0008.88,0004.62,0004.16
2022-12-23 03:03:00,,0830.6,4.97,0.00,21.3,21.6,00.0,30.0,23.0,02.3,0000.4,0008.89,0004.63,0004.17
2022-12-23 03:04:00,,0830.4,5.03,0.00,21.4,21.9,00.0,30.0,23.2,02.3,0001.0,0008.60,0004.63,0004.19
2022-12-23 03:05:00,,0830.4,4.97,0.00,21.5,22.2,00.0,30.0,23.3,02.3,0001.8,0008.24,0004.62,0004.18
2022-12-23 03:06:00,,0830.4,5.03,0.00,21.6,21.7,00.0,30.1,23.1,02.3,0001.9,0008.18,0004.61,0004.17
2022-12-23 03:07:00,,0830.3,4.98,0.00,21.4,20.3,00.0,30.2,22.7,02.3,0002.3,0008.16,0004.58,0004.15
2022-12-23 03:08:00,,0830.5,4.98,0.00,21.2,19.2,00.0,30.2,22.3,02.3,0002.6,0008.02,0004.53,0004.13
2022-12-23 03:09:00,,0830.4,5.03,0.00,21.1,18.9,00.0,30.1,22.1,02.4,0002.4,0008.00,0004.54,0004.12
2022-12-23 03:10:00,,0830.5,5.01,0.00,21.1,19.9,00.0,30.0,22.4,02.4,0002.5,0007.96,0004.52,0004.10
2022-12-23 03:11:00,,0830.4,4.95,0.00,21.2,20.7,00.0,30.0,22.7,02.4,0001.9,0007.80,0004.48,0004.10
2022-12-23 03:12:00,,0830.4,5.03,0.00,21.3,21.3,00.0,30.0,22.9,02.3,0002.2,0007.80,0004.46,0004.08
2022-12-23 03:13:00,,0830.4,4.97,0.00,21.4,21.8,00.0,30.0,23.1,02.3,0003.0,0007.79,0004.44,0004.07
2022-12-23 03:14:00,,0830.4,5.04,0.00,21.5,22.0,00.0,30.0,23.2,02.3,0002.4,0007.72,0004.41,0004.04
2022-12-23 03:15:00,,0830.4,4.95,0.00,21.4,20.9,00.0,30.1,22.8,02.3,0002.1,0007.64,0004.38,0004.02
2022-12-23 03:16:00,,0830.2,5.02,0.00,21.2,19.7,00.0,30.1,22.4,02.3,0001.9,0007.66,0004.38,0004.01
2022-12-23 03:17:00,,0830.2,5.04,0.00,21.1,19.3,00.0,30.1,22.3,02.3,0001.7,0007.68,0004.37,0003.99
2022-12-23 03:18:00,,0830.4,4.96,0.00,21.1,20.3,00.0,30.0,22.6,02.3,0001.6,0007.76,0004.37,0003.98
2022-12-23 03:19:00,,0830.4,5.02,0.00,21.2,21.0,00.0,30.0,22.8,02.3,0001.5,0007.68,0004.36,0003.97
2022-12-23 03:20:00,,0830.4,4.98,0.00,21.3,21.6,00.0,30.0,23.0,02.3,0001.8,0007.82,0004.37,0003.95
2022-12-23 03:21:00,,0830.4,5.02,0.00,21.5,22.0,00.0,30.0,23.2,02.3,0001.7,0008.22,0004.36,0003.94
2022-12-23 03:22:00,,0830.5,4.97,0.00,21.5,21.4,00.0,30.1,23.0,02.3,0001.4,0008.53,0004.36,0003.90
2022-12-23 03:23:00,,0830.4,5.01,0.00,21.3,19.9,00.0,30.1,22.5,02.3,0000.8,0008.59,0004.39,0003.89
2022-12-23 03:24:00,,0830.3,5.04,0.00,21.1,18.9,00.0,30.1,22.1,02.3,0000.8,0008.61,0004.40,0003.89
2022-12-23 03:25:00,,0830.4,5.01,0.00,21.0,19.6,00.0,30.0,22.3,02.3,0000.5,0008.64,0004.41,0003.89
2022-12-23 03:26:00,,0830.4,4.96,0.00,21.1,20.6,00.0,30.0,22.6,02.3,0000.2,0008.65,0004.39,0003.88
2022-12-23 03:27:00,,0830.5,5.03,0.00,21.2,21.3,00.0,30.0,22.8,02.3,0000.1,0008.70,0004.40,0003.88
2022-12-23 03:28:00,,0830.5,4.97,0.00,21.3,21.7,00.0,30.0,23.0,02.3,0000.1,0008.77,0004.41,0003.90
2022-12-23 03:29:00,,0830.4,5.03,0.00,21.4,22.0,00.0,30.0,23.1,02.3,0000.4,0008.83,0004.45,0003.95
2022-12-23 03:30:00,,0830.4,4.97,0.00,21.5,22.1,00.0,30.0,23.2,02.3,0001.1,0008.93,0004.51,0003.98
2022-12-23 03:31:00,,0830.5,5.02,0.00,21.5,20.9,00.0,30.1,22.9,02.3,0001.5,0008.70,0004.51,0004.01
2022-12-23 03:32:00,,0830.5,4.96,0.00,21.2,19.4,00.0,30.1,22.3,02.3,0001.5,0008.28,0004.51,0004.04
2022-12-23 03:33:00,,0830.4,5.02,0.00,21.0,18.8,00.0,30.1,22.0,02.4,0001.7,0008.52,0004.53,0004.09
2022-12-23 03:34:00,,0830.4,5.04,0.00,21.0,19.8,00.0,30.0,22.3,02.4,0002.1,0008.95,0004.53,0004.14
2022-12-23 03:35:00,,0830.3,4.98,0.00,21.1,20.6,00.0,29.9,22.6,02.4,0002.0,0009.00,0004.57,0004.18
2022-12-23 03:36:00,,0830.4,5.01,0.00,21.2,21.2,00.0,29.9,22.8,02.4,0002.5,0009.07,0004.61,0004.23
2022-12-23 03:37:00,,0830.5,4.98,0.00,21.3,21.7,00.0,29.9,23.0,02.3,0002.9,0009.07,0004.66,0004.28
2022-12-23 03:38:00,,0830.3,5.03,0.00,21.4,21.9,00.0,30.0,23.1,02.3,0003.0,0009.62,0004.67,0004.30
2022-12-23 03:39:00,,0830.3,4.97,0.00,21.5,22.1,00.0,30.0,23.3,02.3,0003.4,0009.87,0004.70,0004.33
2022-12-23 03:40:00,,0830.3,5.03,0.00,21.6,22.3,00.0,30.0,23.4,02.3,0003.5,0010.32,0004.69,0004.32
2022-12-23 03:41:00,,0830.4,4.96,0.00,21.6,21.9,00.0,30.1,23.2,02.3,0003.2,0010.68,0004.71,0004.33
2022-12-23 03:42:00,,0830.4,5.03,0.00,21.4,20.1,00.0,30.2,22.6,02.3,0002.8,0011.18,0004.69,0004.32
2022-12-23 03:43:00,,0830.3,5.02,0.00,21.2,18.8,00.0,30.2,22.1,02.3,0002.9,0011.90,0004.70,0004.31
2022-12-23 03:44:00,,0830.4,4.98,0.00,21.1,19.2,00.0,30.1,22.1,02.4,0002.4,0011.48,0004.71,0004.31
2022-12-23 03:45:00,,0830.4,4.98,0.00,21.2,20.2,00.0,30.0,22.5,02.3,0001.0,0011.02,0004.72,0004.32
2022-12-23 03:46:00,,0830.3,5.02,0.00,21.2,20.9,00.0,30.0,22.7,02.3,0002.3,0011.01,0004.73,0004.32
2022-12-23 03:47:00,,0830.4,4.96,0.00,21.3,21.3,00.0,30.0,22.9,02.3,0002.2,0010.97,0004.73,0004.32
2022-12-23 03:48:00,,0830.4,5.05,0.00,21.4,21.7,00.0,30.0,23.1,02.3,0002.3,0010.98,0004.72,0004.32
2022-12-23 03:49:00,,0830.6,4.97,0.00,21.5,22.0,00.0,30.0,23.2,02.3,0001.1,0010.38,0004.75,0004.34
2022-12-23 03:50:00,,0830.5,5.03,0.00,21.6,22.2,00.0,30.1,23.3,02.3,0000.0,0010.13,0004.76,0004.35
2022-12-23 03:51:00,,0830.4,4.96,0.00,21.6,21.9,00.0,30.1,23.2,02.3,0000.0,0009.68,0004.80,0004.38
2022-12-23 03:52:00,,0830.2,5.03,0.00,21.5,20.3,00.0,30.2,22.7,02.3,0000.0,0009.26,0004.79,0004.39
2022-12-23 03:53:00,,0830.2,5.00,0.00,21.2,19.1,00.0,30.2,22.2,02.4,0000.0,0008.80,0004.85,0004.42
2022-12-23 03:54:00,,0830.2,4.97,0.00,21.1,19.1,00.0,30.1,22.2,02.4,0000.0,0008.87,0004.88,0004.44
2022-12-23 03:55:00,,0830.4,5.02,0.00,21.2,20.1,00.0,30.1,22.5,02.4,0000.0,0008.85,0004.91,0004.47
2022-12-23 03:56:00,,0830.3,5.03,0.00,21.3,20.9,00.0,30.0,22.8,02.4,0000.0,0008.93,0004.92,0004.47
2022-12-23 03:57:00,,0830.3,4.97,0.00,21.3,21.5,00.0,30.0,23.0,02.3,0000.0,0009.49,0004.91,0004.46
2022-12-23 03:58:00,,0830.4,5.00,0.00,21.4,22.0,00.0,30.1,23.2,02.3,0000.0,0009.75,0004.89,0004.43
2022-12-23 03:59:00,,0830.4,5.01,0.00,21.5,22.0,00.0,30.1,23.2,02.3,0000.6,0009.82,0004.86,0004.41
